www.pogodaiklimat.ru

Погода и климат >> Архив погоды >> Иран >> Kermanshah


ПОГОДА в Kermanshah

  • Прогноз погоды в Kermanshah
  • Монитор погоды в Kermanshah
  • Климат города

АРХИВ ПОГОДЫ в Kermanshah

Время (UTC), дата Ветер
(напр.,м/с)
 
Видим.   Явления Облачность Т
(С)
Тd
(С)
f
(%)
Тe
(С)
Тes
(С)
Комфортность P
(гПа)
Po
(гПа)
Тmin
(С)
Tmax
(С)
R
(мм)
R24
(мм)
S
(см)
21 10.10 ЮВ 2 10 км ясно +14.0 -2.3 32 +14 +14 868.9
03 11.10 штиль 0 10 км ясно +8.6 -4.0 41 +8 +8 1012.9 869.2 +8.6
06 11.10 штиль 0 10 км ясно +19.8 -1.5 24 +20 +27 1012.0 869.8
09 11.10 С 2 10 км 3/3 1200 м
[Cu hum]
+26.8 -2.6 14 +24 +32 комфорт 1009.3 868.0
12 11.10 Ю 3 10 км 4/4 1200 м
[Cu hum]
+28.1 -6.8 10 +25 +27 комфорт 1008.9 866.8
15 11.10 СЗ 5 10 км ясно +23.0 -0.5 21 +22 +22 комфорт 1011.5 867.9 +29.2
18 11.10 З 6 10 км ясно +17.6 +0.3 31 +17 +17 1011.5 869.2
21 11.10 З 5 10 км ясно +15.0 -0.6 34 +14 +14 1011.0 869.6
00 12.10 З 4 15 км ясно +11.8 +0.3 45 +10 +10 1011.5 869.8
03 12.10 штиль 0 15 км ясно +8.0 -0.6 55 +8 +8 1014.6 870.5 +7.6
06 12.10 З 2 12 км ясно +15.9 +0.9 36 +16 +22 1015.2 871.6
09 12.10 СЗ 2 10 км ясно +22.7 -2.4 19 +21 +33 комфорт 1012.8 870.4
12 12.10 С 2 10 км ясно +25.4 -11.0 8 +22 +27 комфорт 1011.7 869.2
15 12.10 З 4 10 км ясно +20.6 -13.0 9 +20 +20 1014.8 869.9 +26.1
18 12.10 З 4 10 км ясно +15.6 -6.5 21 +15 +15 1015.4 871.1
21 12.10 З 3 10 км ясно +12.2 -4.5 31 +11 +11 1014.8 870.4
00 13.10 штиль 0 10 км ясно +6.5 -6.4 39 +6 +6 1014.9 870.8
03 13.10 штиль 0 10 км ясно +3.7 -6.8 46 +3 +3 1017.7 871.5 +3.1
06 13.10 штиль 0 10 км ясно +15.1 -11.8 14 +15 +23 1017.6 872.8
09 13.10 З 3 10 км 1/1 1000 м
[Cu hum]
+22.5 -15.9 7 +20 +29 1014.3 870.8
12 13.10 СЗ 4 15 км 3/0 2000 м
[Ac trans]
+24.6 -13.7 7 +22 +24 комфорт 1013.6 869.4
15 13.10 СЗ 5 10 км 1/1 1350 м
[Sc diur, vesp]
+22.0 -4.9 16 +21 +21 комфорт 1014.5 869.0 +25.5
18 13.10 СЗ 3 10 км ясно +17.1 -4.9 22 +17 +17 1013.5 869.7
21 13.10 СЗ 2 10 км ясно +15.4 -5.1 24 +16 +16 1012.8 869.7
00 14.10 ЮВ 2 10 км ясно +8.5 -7.4 32 +7 +7 1013.0 869.4
03 14.10 штиль 0 10 км ясно +7.9 -5.5 38 +8 +8 1014.5 870.0 +7.4
06 14.10 штиль 0 10 км ясно +16.5 -5.4 22 +17 +24 1014.3 870.7
09 14.10 З 3 10 км ясно +23.7 -3.8 16 +22 +31 комфорт 1011.5 869.6
12 14.10 З 8 10 км ясно +24.9 -8.7 10 +22 +23 комфорт 1011.0 867.7
15 14.10 СЗ 4 10 км ясно +20.5 -6.9 15 +20 +20 1012.5 867.9 +25.6
18 14.10 штиль 0 10 км ясно +14.9 -4.5 26 +15 +15 1013.0 869.1
21 14.10 штиль 0 10 км ясно +10.0 -9.1 25 +10 +10 1012.7 869.1
00 15.10 штиль 0 10 км ясно +7.6 -7.8 33 +8 +8 1012.8 869.1
03 15.10 штиль 0 10 км ясно +6.5 -7.6 36 +6 +6 1014.7 869.5 +6.4
06 15.10 штиль 0 10 км ясно +17.2 -6.1 20 +17 +24 1015.0 870.9
09 15.10 З 4 10 км ясно +23.7 -3.8 16 +22 +30 комфорт 1013.4 869.9
12 15.10 З 6 10 км 4/4 1200 м
[Cu hum]
+26.1 -7.1 11 +23 +24 комфорт 1011.8 868.5
15 15.10 СЗ 5 10 км 1/1 1200 м
[Sc diur, vesp]
+21.8 -2.3 20 +21 +21 комфорт 1013.5 868.8 +26.1
18 15.10 З 2 10 км ясно +17.9 -1.2 27 +18 +18 1012.5 869.6
21 15.10 штиль 0 10 км ясно +12.4 -1.9 37 +12 +12 1011.6 869.6
00 16.10 штиль 0 10 км ясно +9.0 -3.7 41 +9 +9 1011.7 868.8
03 16.10 штиль 0 10 км 1/0
[Ac trans]
+7.5 -3.9 44 +7 +7 1013.4 868.9 +7.3
06 16.10 штиль 0 10 км ясно +17.7 -3.2 24 +18 +25 1012.0 869.2
09 16.10 З 5 10 км ясно +23.8 -7.0 12 +22 +27 комфорт 1010.7 868.2
12 16.10 З 7 10 км ясно +24.5 -5.4 13 +22 +23 комфорт 1010.1 867.1
15 16.10 СЗ 5 10 км ясно +19.0 -5.9 18 +19 +19 1013.0 868.0 +25.5
18 16.10 З 4 10 км ясно +14.2 -5.1 26 +13 +13 1012.5 868.8
21 16.10 СЗ 4 10 км ясно +14.2 -5.1 26 +13 +13 1011.4 868.6
00 17.10 З 3 10 км ясно +9.8 -4.6 36 +8 +8 1011.6 868.6
03 17.10 В 2 10 км ясно +5.0 -7.2 41 +3 +3 1014.9 869.0 +4.8
06 17.10 штиль 0 10 км ясно +16.2 -5.6 22 +16 +23 1014.4 870.1
09 17.10 СЗ 5 10 км ясно +21.1 -11.1 10 +20 +25 1012.8 869.7
12 17.10 З 4 10 км ясно +22.6 -12.6 8 +20 +23 1012.5 868.7
15 17.10 С 2 15 км ясно +19.9 -12.7 10 +20 +20 1014.3 868.6 +23.5

 

Местоположение метеостанции Kermanshah (Иран): широта 34.27 долгота 47.12 высота над уровнем моря 1322 м.

В архиве по умолчанию представлена погода в Kermanshah за последнюю неделю. Архивные данные за месяц целиком и за предыдущие месяцы, начиная с января 2011 года, Вы можете получить, выбрав интересующий диапазон дат из раскрывающегося списка и нажав кнопку "Ввод!".

Внимание! Время в таблицах - всемирное. Для получения местного времени необходимо прибавить поправку, которая в Kermanshah равна 3.5 ч.

Смотрите также архив погоды в соседних городах и на ближайших метеорологических станциях:

Погода в Ilam (Иран) (95 км)
Погода в Sanandaj (Иран) (118 км)
Погода в Hamedan (Иран) (144 км)
Погода в Khorram Abad (Иран) (145 км)
Погода в Halabcha (Ирак) (149 км)
Погода в Khanaqin (Ирак) (155 км)
Погода в Badrah (Ирак) (169 км)
Погода в Ali Al-Gharbi (Ирак) (204 км)
Погода в Sulaimaniya (Ирак) (208 км)
Погода в Saghez (Иран) (233 км)

Пояснения к столбцам:

Ветер - указаны скорость ветра в м/с - средняя за 10 мин, порывы в срок и между сроками (в фигурных скобках) и направление, откуда дует ветер: С - северный, СВ - северо-восточный, В - восточный, ЮВ - юго-восточный, Ю - южный, ЮЗ - юго-западный, З - западный, СЗ - северо-западный.
Видимость - горизонтальная дальность видимости в метрах или километрах. При видимости от 1 до 10 км при отсутствии осадков обычно наблюдается дымка, при ухудшении видимости до 1 км и менее - туман. В сухую погоду видимость может ухудшаться дымом, пылью или мглою.
Явления - указаны атмосферные явления, наблюдавшиеся в срок или в последний час перед сроком; фигурными скобками обозначены явления, наблюдавшиеся между сроками (за 1-3 часа до срока); квадратными скобками обозначены град или гололедные отложения с указанием их диаметра в мм.
Облачность - указаны через наклонную черту общая и нижняя облачность в баллах и высота нижней границы облаков в метрах; квадратными скобками обозначены формы облаков: Ci - перистые, Cs - перисто-слоистые, Cc - перисто-кучевые, Ac - высококучевые, As - высокослоистые, Sc - слоисто-кучевые, Ns - слоисто-дождевые, Cu - кучевые, Cb - кучево-дождевые. Подробнее классификацию облаков см. в Атласе облаков (PDF).
T - Температура воздуха - температура, измеренная на высоте 2 м над землей.
Td - Температура точки росы - температура, при понижении до которой содержащийся в воздухе водяной пар достигнет насыщения.
f - Относительная влажность воздуха - влажноcть воздуха, измеренная на высоте 2 м над землей.
Te - Эффективная температура - температура, которую ощущает одетый по сезону человек в тени. Характеристика душности погоды. При расчете учитывается влияние влажности воздуха и скорости ветра на теплоощущения человека.
Tes - Эффективная температура на солнце - температура, которую ощущает человек, с поправкой на солнечный нагрев. Характеристика знойности погоды. Зависит от высоты солнца над горизонтом, облачности и скорости ветра. Ночью, в пасмурную погоду, а также при ветре 12 м/с и более поправка равна нулю.
P - Атмосферное давление - приведенное к уровню моря атмосферное давление.
Po - Атмосферное давление - измеренное на уровне метеостанции атмосферное давление.
Tmin - Минимальная температура - минимум температуры воздуха на высоте 2 м над землей.
Tmax - Максимальная температура - максимум температуры воздуха на высоте 2 м над землей.
R - Количество осадков - Количество выпавших осадков за период времени, мм. При наведении курсора мыши на число - период времени, за который выпало указанное количество осадков.
R24 - Количество осадков - Количество выпавших осадков за 24 часа, мм.
S - Снежный покров - Высота снежного покрова, см. При наведении курсора мыши на число - состояние снежного покрова и степень покрытия местности в баллах.